Simultaneous Nadir Overpasses (SNOs) Predictions

Prediction of SNOs between AQUA and GOES-15 Satellite Orbit:

Table of predicted SNOs for the next 14.0 days since TLE Epoch: 12/12/2020
Index Date Time (AQUA) AQUA Lat,Lon GOES-15 Lat,Lon Distance(km) Time Diff (sec)
1 12/12/2020 10:07:01 0.01,-127.90 0.05,-128.16 28.58 80
2 12/14/2020 09:54:50 -0.67,-124.95 0.05,-128.18 367.96 80
3 12/14/2020 22:16:13 -0.52,-130.13 -0.08,-128.21 218.95 80
4 12/16/2020 22:04:02 0.17,-127.18 -0.07,-128.23 119.71 80
5 12/17/2020 10:25:16 1.00,-132.32 0.11,-128.22 467.36 80
6 12/18/2020 21:51:50 0.79,-124.22 -0.07,-128.25 458.27 80
7 12/19/2020 10:13:04 0.37,-129.36 0.10,-128.24 128.73 80
8 12/21/2020 10:00:53 -0.33,-126.42 0.09,-128.26 209.94 80
9 12/21/2020 22:22:16 -0.86,-131.59 -0.12,-128.29 376.57 80
10 12/23/2020 22:10:04 -0.22,-128.63 -0.12,-128.30 38.28 80
11 12/25/2020 21:57:52 0.43,-125.68 -0.11,-128.32 299.73 80
